Year,Month,Day,Hour,Minute,Value (Times are PST for temperature in C)
2015,08,19,01,16,13.30
2015,08,19,01,17,13.30
2015,08,19,01,18,13.30
2015,08,19,01,19,13.30
2015,08,19,01,20,13.30
2015,08,19,01,21,13.30
2015,08,19,01,22,13.30
2015,08,19,01,23,13.30
2015,08,19,01,24,13.30
2015,08,19,01,25,13.30
2015,08,19,01,26,13.30
2015,08,19,01,27,13.30
2015,08,19,01,28,13.30
2015,08,19,01,29,13.30
2015,08,19,01,30,13.30
2015,08,19,01,31,13.30
2015,08,19,01,32,13.30
2015,08,19,01,33,13.30
2015,08,19,01,34,13.30
2015,08,19,01,35,13.30
2015,08,19,01,36,13.30
2015,08,19,01,37,13.30
2015,08,19,01,38,13.30
2015,08,19,01,39,13.30
2015,08,19,01,40,13.30
2015,08,19,01,41,13.30
2015,08,19,01,42,13.30
2015,08,19,01,43,13.30
2015,08,19,01,44,13.30
2015,08,19,01,45,13.30
2015,08,19,01,46,13.40
2015,08,19,01,47,13.40
2015,08,19,01,48,13.40
2015,08,19,01,49,13.40
2015,08,19,01,50,13.40
2015,08,19,01,51,13.40
2015,08,19,01,52,13.40
2015,08,19,01,53,13.40
2015,08,19,01,54,13.40
2015,08,19,01,55,13.40
2015,08,19,01,56,13.40
2015,08,19,01,57,13.40
2015,08,19,01,58,13.40
2015,08,19,01,59,13.40
2015,08,19,02,00,13.40
2015,08,19,02,01,13.40
2015,08,19,02,02,13.40
2015,08,19,02,03,13.40
2015,08,19,02,04,13.40
2015,08,19,02,05,13.40
2015,08,19,02,06,13.40
2015,08,19,02,07,13.40
2015,08,19,02,08,13.40
2015,08,19,02,09,13.40
2015,08,19,02,10,13.40
2015,08,19,02,11,13.40
2015,08,19,02,12,13.40
2015,08,19,02,13,13.40
2015,08,19,02,14,13.40
2015,08,19,02,15,13.40
2015,08,19,02,16,13.40
2015,08,19,02,17,13.40
2015,08,19,02,18,13.40
2015,08,19,02,19,13.40
2015,08,19,02,20,13.40
2015,08,19,02,21,13.40
2015,08,19,02,22,13.40
2015,08,19,02,23,13.40
2015,08,19,02,24,13.40
2015,08,19,02,25,13.40
2015,08,19,02,26,13.40
2015,08,19,02,27,13.40
2015,08,19,02,28,13.40
2015,08,19,02,29,13.40
2015,08,19,02,30,13.40
2015,08,19,02,31,13.40
2015,08,19,02,32,13.40
2015,08,19,02,33,13.40
2015,08,19,02,34,13.40
2015,08,19,02,35,13.40
2015,08,19,02,36,13.40
2015,08,19,02,37,13.40
2015,08,19,02,38,13.40
2015,08,19,02,39,13.40
2015,08,19,02,40,13.40
2015,08,19,02,41,13.40
2015,08,19,02,42,13.40
2015,08,19,02,43,13.40
2015,08,19,02,44,13.40
2015,08,19,02,45,13.40
2015,08,19,02,46,14.60
2015,08,19,02,47,14.60
2015,08,19,02,48,14.60
2015,08,19,02,49,14.60
2015,08,19,02,50,14.60
2015,08,19,02,51,14.60
2015,08,19,02,52,14.60
2015,08,19,02,53,14.60
2015,08,19,02,54,14.60
2015,08,19,02,55,14.60
2015,08,19,02,56,14.60
2015,08,19,02,57,14.60
2015,08,19,02,58,14.60
2015,08,19,02,59,14.60
2015,08,19,03,00,14.60
2015,08,19,03,01,14.60
2015,08,19,03,02,14.60
2015,08,19,03,03,14.60
2015,08,19,03,04,14.60
2015,08,19,03,05,14.60
2015,08,19,03,06,14.60
2015,08,19,03,07,14.60
2015,08,19,03,08,14.60
2015,08,19,03,09,14.60
2015,08,19,03,10,14.60
2015,08,19,03,11,14.60
2015,08,19,03,12,14.60
2015,08,19,03,13,14.60
2015,08,19,03,14,14.60
2015,08,19,03,15,14.60
2015,08,19,03,16,13.90
2015,08,19,03,17,13.90
2015,08,19,03,18,13.90
2015,08,19,03,19,13.90
2015,08,19,03,20,13.90
2015,08,19,03,21,13.90
2015,08,19,03,22,13.90
2015,08,19,03,23,13.90
2015,08,19,03,24,13.90
2015,08,19,03,25,13.90
2015,08,19,03,26,13.90
2015,08,19,03,27,13.90
2015,08,19,03,28,13.90
2015,08,19,03,29,13.90
2015,08,19,03,30,13.90
2015,08,19,03,31,13.90
2015,08,19,03,32,13.90
2015,08,19,03,33,13.90
2015,08,19,03,34,13.90
2015,08,19,03,35,13.90
2015,08,19,03,36,13.90
2015,08,19,03,37,13.90
2015,08,19,03,38,13.90
2015,08,19,03,39,13.90
2015,08,19,03,40,13.90
2015,08,19,03,41,13.90
2015,08,19,03,42,13.90
2015,08,19,03,43,13.90
2015,08,19,03,44,13.90
2015,08,19,03,45,13.90
2015,08,19,03,46,14.30
2015,08,19,03,47,14.30
2015,08,19,03,48,14.30
2015,08,19,03,49,14.30
2015,08,19,03,50,14.30
2015,08,19,03,51,14.30
2015,08,19,03,52,14.30
2015,08,19,03,53,14.30
2015,08,19,03,54,14.30
2015,08,19,03,55,14.30
2015,08,19,03,56,14.30
2015,08,19,03,57,14.30
2015,08,19,03,58,14.30
2015,08,19,03,59,14.30
2015,08,19,04,00,14.30
2015,08,19,04,01,14.30
2015,08,19,04,02,14.30
2015,08,19,04,03,14.30
2015,08,19,04,04,14.30
2015,08,19,04,05,14.30
2015,08,19,04,06,14.30
2015,08,19,04,07,14.30
2015,08,19,04,08,14.30
2015,08,19,04,09,14.30
2015,08,19,04,10,14.30
2015,08,19,04,11,14.30
2015,08,19,04,12,14.30
2015,08,19,04,13,14.30
2015,08,19,04,14,14.30
2015,08,19,04,15,14.30
2015,08,19,04,16,13.40
2015,08,19,04,17,13.40
2015,08,19,04,18,13.40
2015,08,19,04,19,13.40
2015,08,19,04,20,13.40
2015,08,19,04,21,13.40
2015,08,19,04,22,13.40
2015,08,19,04,23,13.40
2015,08,19,04,24,13.40
2015,08,19,04,25,13.40
2015,08,19,04,26,13.40
2015,08,19,04,27,13.40
2015,08,19,04,28,13.40
2015,08,19,04,29,13.40
2015,08,19,04,30,13.40
2015,08,19,04,31,13.40
2015,08,19,04,32,13.40
2015,08,19,04,33,13.40
2015,08,19,04,34,13.40
2015,08,19,04,35,13.40
2015,08,19,04,36,13.40
2015,08,19,04,37,13.40
2015,08,19,04,38,13.40
2015,08,19,04,39,13.40
2015,08,19,04,40,13.40
2015,08,19,04,41,13.40
2015,08,19,04,42,13.40
2015,08,19,04,43,13.40
2015,08,19,04,44,13.40
2015,08,19,04,45,13.40
2015,08,19,04,46,12.90
2015,08,19,04,47,12.90
2015,08,19,04,48,12.90
2015,08,19,04,49,12.90
2015,08,19,04,50,12.90
2015,08,19,04,51,12.90
2015,08,19,04,52,12.90
2015,08,19,04,53,12.90
2015,08,19,04,54,12.90
2015,08,19,04,55,12.90
2015,08,19,04,56,12.90
2015,08,19,04,57,12.90
2015,08,19,04,58,12.90
2015,08,19,04,59,12.90
2015,08,19,05,00,12.90
2015,08,19,05,01,12.90
2015,08,19,05,02,12.90
2015,08,19,05,03,12.90
2015,08,19,05,04,12.90
2015,08,19,05,05,12.90
2015,08,19,05,06,12.90
2015,08,19,05,07,12.90
2015,08,19,05,08,12.90
2015,08,19,05,09,12.90
2015,08,19,05,10,12.90
2015,08,19,05,11,12.90
2015,08,19,05,12,12.90
2015,08,19,05,13,12.90
2015,08,19,05,14,12.90
2015,08,19,05,15,12.90
2015,08,19,05,16,13.10
2015,08,19,05,17,13.10
2015,08,19,05,18,13.10
2015,08,19,05,19,13.10
2015,08,19,05,20,13.10
2015,08,19,05,21,13.10
2015,08,19,05,22,13.10
2015,08,19,05,23,13.10
2015,08,19,05,24,13.10
2015,08,19,05,25,13.10
2015,08,19,05,26,13.10
2015,08,19,05,27,13.10
2015,08,19,05,28,13.10
2015,08,19,05,29,13.10
2015,08,19,05,30,13.10
2015,08,19,05,31,13.10
2015,08,19,05,32,13.10
2015,08,19,05,33,13.10
2015,08,19,05,34,13.10
2015,08,19,05,35,13.10
2015,08,19,05,36,13.10
2015,08,19,05,37,13.10
2015,08,19,05,38,13.10
2015,08,19,05,39,13.10
2015,08,19,05,40,13.10
2015,08,19,05,41,13.10
2015,08,19,05,42,13.10
2015,08,19,05,43,13.10
2015,08,19,05,44,13.10
2015,08,19,05,45,13.10
2015,08,19,05,46,13.40
2015,08,19,05,47,13.40
2015,08,19,05,48,13.40
2015,08,19,05,49,13.40
2015,08,19,05,50,13.40
2015,08,19,05,51,13.40
2015,08,19,05,52,13.40
2015,08,19,05,53,13.40
2015,08,19,05,54,13.40
2015,08,19,05,55,13.40
2015,08,19,05,56,13.40
2015,08,19,05,57,13.40
2015,08,19,05,58,13.40
2015,08,19,05,59,13.40
2015,08,19,06,00,13.40
2015,08,19,06,01,13.40
2015,08,19,06,02,13.40
2015,08,19,06,03,13.40
2015,08,19,06,04,13.40
2015,08,19,06,05,13.40
2015,08,19,06,06,13.40
2015,08,19,06,07,13.40
2015,08,19,06,08,13.40
2015,08,19,06,09,13.40
2015,08,19,06,10,13.40
2015,08,19,06,11,13.40
2015,08,19,06,12,13.40
2015,08,19,06,13,13.40
2015,08,19,06,14,13.40
2015,08,19,06,15,13.40
2015,08,19,06,16,13.40
2015,08,19,06,17,13.40
2015,08,19,06,18,13.40
2015,08,19,06,19,13.40
2015,08,19,06,20,13.40
2015,08,19,06,21,13.40
2015,08,19,06,22,13.40
2015,08,19,06,23,13.40
2015,08,19,06,24,13.40
2015,08,19,06,25,13.40
2015,08,19,06,26,13.40
2015,08,19,06,27,13.40
2015,08,19,06,28,13.40
2015,08,19,06,29,13.40
2015,08,19,06,30,13.40
2015,08,19,06,31,13.40
2015,08,19,06,32,13.40
2015,08,19,06,33,13.40
2015,08,19,06,34,13.40
2015,08,19,06,35,13.40
2015,08,19,06,36,13.40
2015,08,19,06,37,13.40
2015,08,19,06,38,13.40
2015,08,19,06,39,13.40
2015,08,19,06,40,13.40
2015,08,19,06,41,13.40
2015,08,19,06,42,13.40
2015,08,19,06,43,13.40
2015,08,19,06,44,13.40
2015,08,19,06,45,13.40
2015,08,19,06,46,12.80
2015,08,19,06,47,12.80
2015,08,19,06,48,12.80
2015,08,19,06,49,12.80
2015,08,19,06,50,12.80
2015,08,19,06,51,12.80
2015,08,19,06,52,12.80
2015,08,19,06,53,12.80
2015,08,19,06,54,12.80
2015,08,19,06,55,12.80
2015,08,19,06,56,12.80
2015,08,19,06,57,12.80
2015,08,19,06,58,12.80
2015,08,19,06,59,12.80
2015,08,19,07,00,12.80
2015,08,19,07,01,12.80
2015,08,19,07,02,12.80
2015,08,19,07,03,12.80
2015,08,19,07,04,12.80
2015,08,19,07,05,12.80
2015,08,19,07,06,12.80
2015,08,19,07,07,12.80
2015,08,19,07,08,12.80
2015,08,19,07,09,12.80
2015,08,19,07,10,12.80
2015,08,19,07,11,12.80
2015,08,19,07,12,12.80
2015,08,19,07,13,12.80
2015,08,19,07,14,12.80
2015,08,19,07,15,12.80
2015,08,19,07,16,13.50
2015,08,19,07,17,13.50
2015,08,19,07,18,13.50
2015,08,19,07,19,13.50
2015,08,19,07,20,13.50
2015,08,19,07,21,13.50
2015,08,19,07,22,13.50
2015,08,19,07,23,13.50
2015,08,19,07,24,13.50
2015,08,19,07,25,13.50
2015,08,19,07,26,13.50
2015,08,19,07,27,13.50
2015,08,19,07,28,13.50
2015,08,19,07,29,13.50
2015,08,19,07,30,13.50
2015,08,19,07,31,13.50
2015,08,19,07,32,13.50
2015,08,19,07,33,13.50
2015,08,19,07,34,13.50
2015,08,19,07,35,13.50
2015,08,19,07,36,13.50
2015,08,19,07,37,13.50
2015,08,19,07,38,13.50
2015,08,19,07,39,13.50
2015,08,19,07,40,13.50
2015,08,19,07,41,13.50
2015,08,19,07,42,13.50
2015,08,19,07,43,13.50
2015,08,19,07,44,13.50
2015,08,19,07,45,13.50
2015,08,19,07,46,13.70
2015,08,19,07,47,13.70
2015,08,19,07,48,13.70
2015,08,19,07,49,13.70
2015,08,19,07,50,13.70
2015,08,19,07,51,13.70
2015,08,19,07,52,13.70
2015,08,19,07,53,13.70
2015,08,19,07,54,13.70
2015,08,19,07,55,13.70
2015,08,19,07,56,13.70
2015,08,19,07,57,13.70
2015,08,19,07,58,13.70
2015,08,19,07,59,13.70
2015,08,19,08,00,13.70
2015,08,19,08,01,13.70
2015,08,19,08,02,13.70
2015,08,19,08,03,13.70
2015,08,19,08,04,13.70
2015,08,19,08,05,13.70
2015,08,19,08,06,13.70
2015,08,19,08,07,13.70
2015,08,19,08,08,13.70
2015,08,19,08,09,13.70
2015,08,19,08,10,13.70
2015,08,19,08,11,13.70
2015,08,19,08,12,13.70
2015,08,19,08,13,13.70
2015,08,19,08,14,13.70
2015,08,19,08,15,13.70
2015,08,19,08,16,14.00
2015,08,19,08,17,14.00
2015,08,19,08,18,14.00
2015,08,19,08,19,14.00
2015,08,19,08,20,14.00
2015,08,19,08,21,14.00
2015,08,19,08,22,14.00
2015,08,19,08,23,14.00
2015,08,19,08,24,14.00
2015,08,19,08,25,14.00
2015,08,19,08,26,14.00
2015,08,19,08,27,14.00
2015,08,19,08,28,14.00
2015,08,19,08,29,14.00
2015,08,19,08,30,14.00
2015,08,19,08,31,14.00
2015,08,19,08,32,14.00
2015,08,19,08,33,14.00
2015,08,19,08,34,14.00
2015,08,19,08,35,14.00
2015,08,19,08,36,14.00
2015,08,19,08,37,14.00
2015,08,19,08,38,14.00
2015,08,19,08,39,14.00
2015,08,19,08,40,14.00
2015,08,19,08,41,14.00
2015,08,19,08,42,14.00
2015,08,19,08,43,14.00
2015,08,19,08,44,14.00
2015,08,19,08,45,14.00
2015,08,19,08,46,13.20
2015,08,19,08,47,13.20
2015,08,19,08,48,13.20
2015,08,19,08,49,13.20
2015,08,19,08,50,13.20
2015,08,19,08,51,13.20
2015,08,19,08,52,13.20
2015,08,19,08,53,13.20
2015,08,19,08,54,13.20
2015,08,19,08,55,13.20
2015,08,19,08,56,13.20
2015,08,19,08,57,13.20
2015,08,19,08,58,13.20
2015,08,19,08,59,13.20
2015,08,19,09,00,13.20
2015,08,19,09,01,13.20
2015,08,19,09,02,13.20
2015,08,19,09,03,13.20
2015,08,19,09,04,13.20
2015,08,19,09,05,13.20
2015,08,19,09,06,13.20
2015,08,19,09,07,13.20
2015,08,19,09,08,13.20
2015,08,19,09,09,13.20
2015,08,19,09,10,13.20
2015,08,19,09,11,13.20
2015,08,19,09,12,13.20
2015,08,19,09,13,13.20
2015,08,19,09,14,13.20
2015,08,19,09,15,13.20
2015,08,19,09,16,13.40
2015,08,19,09,17,13.40
2015,08,19,09,18,13.40
2015,08,19,09,19,13.40
2015,08,19,09,20,13.40
2015,08,19,09,21,13.40
2015,08,19,09,22,13.40
2015,08,19,09,23,13.40
2015,08,19,09,24,13.40
2015,08,19,09,25,13.40
2015,08,19,09,26,13.40
2015,08,19,09,27,13.40
2015,08,19,09,28,13.40
2015,08,19,09,29,13.40
2015,08,19,09,30,13.40
2015,08,19,09,31,13.40
2015,08,19,09,32,13.40
2015,08,19,09,33,13.40
2015,08,19,09,34,13.40
2015,08,19,09,35,13.40
2015,08,19,09,36,13.40
2015,08,19,09,37,13.40
2015,08,19,09,38,13.40
2015,08,19,09,39,13.40
2015,08,19,09,40,13.40
2015,08,19,09,41,13.40
2015,08,19,09,42,13.40
2015,08,19,09,43,13.40
2015,08,19,09,44,13.40
2015,08,19,09,45,13.40
2015,08,19,09,46,14.10
2015,08,19,09,47,14.10
2015,08,19,09,48,14.10
2015,08,19,09,49,14.10
2015,08,19,09,50,14.10
2015,08,19,09,51,14.10
2015,08,19,09,52,14.10
2015,08,19,09,53,14.10
2015,08,19,09,54,14.10
2015,08,19,09,55,14.10
2015,08,19,09,56,14.10
2015,08,19,09,57,14.10
2015,08,19,09,58,14.10
2015,08,19,09,59,14.10
2015,08,19,10,00,14.10
2015,08,19,10,01,14.10
2015,08,19,10,02,14.10
2015,08,19,10,03,14.10
2015,08,19,10,04,14.10
2015,08,19,10,05,14.10
2015,08,19,10,06,14.10
2015,08,19,10,07,14.10
2015,08,19,10,08,14.10
2015,08,19,10,09,14.10
2015,08,19,10,10,14.10
2015,08,19,10,11,14.10
2015,08,19,10,12,14.10
2015,08,19,10,13,14.10
2015,08,19,10,14,14.10
2015,08,19,10,15,14.10
2015,08,19,10,16,14.50
2015,08,19,10,17,14.50
2015,08,19,10,18,14.50
2015,08,19,10,19,14.50
2015,08,19,10,20,14.50
2015,08,19,10,21,14.50
2015,08,19,10,22,14.50
2015,08,19,10,23,14.50
2015,08,19,10,24,14.50
2015,08,19,10,25,14.50
2015,08,19,10,26,14.50
2015,08,19,10,27,14.50
2015,08,19,10,28,14.50
2015,08,19,10,29,14.50
2015,08,19,10,30,14.50
2015,08,19,10,31,14.50
2015,08,19,10,32,14.50
2015,08,19,10,33,14.50
2015,08,19,10,34,14.50
2015,08,19,10,35,14.50
2015,08,19,10,36,14.50
2015,08,19,10,37,14.50
2015,08,19,10,38,14.50
2015,08,19,10,39,14.50
2015,08,19,10,40,14.50
2015,08,19,10,41,14.50
2015,08,19,10,42,14.50
2015,08,19,10,43,14.50
2015,08,19,10,44,14.50
2015,08,19,10,45,14.50
2015,08,19,10,46,15.20
2015,08,19,10,47,15.20
2015,08,19,10,48,15.20
2015,08,19,10,49,15.20
2015,08,19,10,50,15.20
2015,08,19,10,51,15.20
2015,08,19,10,52,15.20
2015,08,19,10,53,15.20
2015,08,19,10,54,15.20
2015,08,19,10,55,15.20
2015,08,19,10,56,15.20
2015,08,19,10,57,15.20
2015,08,19,10,58,15.20
2015,08,19,10,59,15.20
2015,08,19,11,00,15.20
2015,08,19,11,01,15.20
2015,08,19,11,02,15.20
2015,08,19,11,03,15.20
2015,08,19,11,04,15.20
2015,08,19,11,05,15.20
2015,08,19,11,06,15.20
2015,08,19,11,07,15.20
2015,08,19,11,08,15.20
2015,08,19,11,09,15.20
2015,08,19,11,10,15.20
2015,08,19,11,11,15.20
2015,08,19,11,12,15.20
2015,08,19,11,13,15.20
2015,08,19,11,14,15.20
2015,08,19,11,15,15.20
2015,08,19,11,16,15.20
2015,08,19,11,17,15.30
2015,08,19,11,18,15.30
2015,08,19,11,19,15.30
2015,08,19,11,20,15.30
2015,08,19,11,21,15.30
2015,08,19,11,22,15.30
2015,08,19,11,23,15.30
2015,08,19,11,24,15.30
2015,08,19,11,25,15.30
2015,08,19,11,26,15.30
2015,08,19,11,27,15.30
2015,08,19,11,28,15.30
2015,08,19,11,29,15.30
2015,08,19,11,30,15.30
2015,08,19,11,31,15.30
2015,08,19,11,32,15.30
2015,08,19,11,33,15.30
2015,08,19,11,34,15.30
2015,08,19,11,35,15.30
2015,08,19,11,36,15.30
2015,08,19,11,37,15.30
2015,08,19,11,38,15.30
2015,08,19,11,39,15.30
2015,08,19,11,40,15.30
2015,08,19,11,41,15.30
2015,08,19,11,42,15.30
2015,08,19,11,43,15.30
2015,08,19,11,44,15.30
2015,08,19,11,45,15.30
2015,08,19,11,46,16.60
2015,08,19,11,47,16.60
2015,08,19,11,48,16.60
2015,08,19,11,49,16.60
2015,08,19,11,50,16.60
2015,08,19,11,51,16.60
2015,08,19,11,52,16.60
2015,08,19,11,53,16.60
2015,08,19,11,54,16.60
2015,08,19,11,55,16.60
2015,08,19,11,56,16.60
2015,08,19,11,57,16.60
2015,08,19,11,58,16.60
2015,08,19,11,59,16.60
2015,08,19,12,00,16.60
2015,08,19,12,01,16.60
2015,08,19,12,02,16.60
2015,08,19,12,03,16.60
2015,08,19,12,04,16.60
2015,08,19,12,05,16.60
2015,08,19,12,06,16.60
2015,08,19,12,07,16.60
2015,08,19,12,08,16.60
2015,08,19,12,09,16.60
2015,08,19,12,10,16.60
2015,08,19,12,11,16.60
2015,08,19,12,12,16.60
2015,08,19,12,13,16.60
2015,08,19,12,14,16.60
2015,08,19,12,15,16.60
2015,08,19,12,16,16.90
2015,08,19,12,17,16.90
2015,08,19,12,18,16.90
2015,08,19,12,19,16.90
2015,08,19,12,20,16.90
2015,08,19,12,21,16.90
2015,08,19,12,22,16.90
2015,08,19,12,23,16.90
2015,08,19,12,24,16.90
2015,08,19,12,25,16.90
2015,08,19,12,26,16.90
2015,08,19,12,27,16.90
2015,08,19,12,28,16.90
2015,08,19,12,29,16.90
2015,08,19,12,30,16.90
2015,08,19,12,31,16.90
2015,08,19,12,32,16.90
2015,08,19,12,33,16.90
2015,08,19,12,34,16.90
2015,08,19,12,35,16.90
2015,08,19,12,36,16.90
2015,08,19,12,37,16.90
2015,08,19,12,38,16.90
2015,08,19,12,39,16.90
2015,08,19,12,40,16.90
2015,08,19,12,41,16.90
2015,08,19,12,42,16.90
2015,08,19,12,43,16.90
2015,08,19,12,44,16.90
2015,08,19,12,45,16.90
2015,08,19,12,46,15.90
2015,08,19,12,47,15.90
2015,08,19,12,48,15.90
2015,08,19,12,49,15.90
2015,08,19,12,50,15.90
2015,08,19,12,51,15.90
2015,08,19,12,52,15.90
2015,08,19,12,53,15.90
2015,08,19,12,54,15.90
2015,08,19,12,55,15.90
2015,08,19,12,56,15.90
2015,08,19,12,57,15.90
2015,08,19,12,58,15.90
2015,08,19,12,59,15.90
2015,08,19,13,00,15.90
2015,08,19,13,01,15.90
2015,08,19,13,02,15.90
2015,08,19,13,03,15.90
2015,08,19,13,04,15.90
2015,08,19,13,05,15.90
2015,08,19,13,06,15.90
2015,08,19,13,07,15.90
2015,08,19,13,08,15.90
2015,08,19,13,09,15.90
2015,08,19,13,10,15.90
2015,08,19,13,11,15.90
2015,08,19,13,12,15.90
2015,08,19,13,13,15.90
2015,08,19,13,14,15.90
2015,08,19,13,15,15.90
2015,08,19,13,16,15.40
2015,08,19,13,17,15.40
2015,08,19,13,18,15.40
2015,08,19,13,19,15.40
2015,08,19,13,20,15.40
2015,08,19,13,21,15.40
2015,08,19,13,22,15.40
2015,08,19,13,23,15.40
2015,08,19,13,24,15.40
2015,08,19,13,25,15.40
2015,08,19,13,26,15.40
2015,08,19,13,27,15.40
2015,08,19,13,28,15.40
2015,08,19,13,29,15.40
2015,08,19,13,30,15.40
2015,08,19,13,31,15.40
2015,08,19,13,32,15.40
2015,08,19,13,33,15.40
2015,08,19,13,34,15.40
2015,08,19,13,35,15.40
2015,08,19,13,36,15.40
2015,08,19,13,37,15.40
2015,08,19,13,38,15.40
2015,08,19,13,39,15.40
2015,08,19,13,40,15.40
2015,08,19,13,41,15.40
2015,08,19,13,42,15.40
2015,08,19,13,43,15.40
2015,08,19,13,44,15.40
2015,08,19,13,45,15.40
2015,08,19,13,46,15.40
2015,08,19,13,47,15.40
2015,08,19,13,48,15.40
2015,08,19,13,49,15.40
2015,08,19,13,50,15.40
2015,08,19,13,51,15.40
2015,08,19,13,52,15.40
2015,08,19,13,53,15.40
2015,08,19,13,54,15.40
2015,08,19,13,55,15.40
2015,08,19,13,56,15.40
2015,08,19,13,57,15.40
2015,08,19,13,58,15.40
2015,08,19,13,59,15.40
2015,08,19,14,00,15.40
2015,08,19,14,01,15.40
2015,08,19,14,02,15.40
2015,08,19,14,03,15.40
2015,08,19,14,04,15.40
2015,08,19,14,05,15.40
2015,08,19,14,06,15.40
2015,08,19,14,07,15.40
2015,08,19,14,08,15.40
2015,08,19,14,09,15.40
2015,08,19,14,10,15.40
2015,08,19,14,11,15.40
2015,08,19,14,12,15.40
2015,08,19,14,13,15.40
2015,08,19,14,14,15.40
2015,08,19,14,15,15.40
2015,08,19,14,16,15.50
2015,08,19,14,17,15.50
2015,08,19,14,18,15.50
2015,08,19,14,19,15.50
2015,08,19,14,20,15.50
2015,08,19,14,21,15.50
2015,08,19,14,22,15.50
2015,08,19,14,23,15.50
2015,08,19,14,24,15.50
2015,08,19,14,25,15.50
2015,08,19,14,26,15.50
2015,08,19,14,27,15.50
2015,08,19,14,28,15.50
2015,08,19,14,29,15.50
2015,08,19,14,30,15.50
2015,08,19,14,31,15.50
2015,08,19,14,32,15.50
2015,08,19,14,33,15.50
2015,08,19,14,34,15.50
2015,08,19,14,35,15.50
2015,08,19,14,36,15.50
2015,08,19,14,37,15.50
2015,08,19,14,38,15.50
2015,08,19,14,39,15.50
2015,08,19,14,40,15.50
2015,08,19,14,41,15.50
2015,08,19,14,42,15.50
2015,08,19,14,43,15.50
2015,08,19,14,44,15.50
2015,08,19,14,45,15.50
2015,08,19,14,46,14.90
2015,08,19,14,47,14.90
2015,08,19,14,48,14.90
2015,08,19,14,49,14.90
2015,08,19,14,50,14.90
2015,08,19,14,51,14.90
2015,08,19,14,52,14.90
2015,08,19,14,53,14.90
2015,08,19,14,54,14.90
2015,08,19,14,55,14.90
2015,08,19,14,56,14.90
2015,08,19,14,57,14.90
2015,08,19,14,58,14.90
2015,08,19,14,59,14.90
2015,08,19,15,00,14.90
2015,08,19,15,01,14.90
2015,08,19,15,02,14.90
2015,08,19,15,03,14.90
2015,08,19,15,04,14.90
2015,08,19,15,05,14.90
2015,08,19,15,06,14.90
2015,08,19,15,07,14.90
2015,08,19,15,08,14.90
2015,08,19,15,09,14.90
2015,08,19,15,10,14.90
2015,08,19,15,11,14.90
2015,08,19,15,12,14.90
2015,08,19,15,13,14.90
2015,08,19,15,14,14.90
2015,08,19,15,15,14.90
2015,08,19,15,16,15.60
2015,08,19,15,17,15.60
2015,08,19,15,18,15.60
2015,08,19,15,19,15.60
2015,08,19,15,20,15.60
2015,08,19,15,21,15.60
2015,08,19,15,22,15.60
2015,08,19,15,23,15.60
2015,08,19,15,24,15.60
2015,08,19,15,25,15.60
2015,08,19,15,26,15.60
2015,08,19,15,27,15.60
2015,08,19,15,28,15.60
2015,08,19,15,29,15.60
2015,08,19,15,30,15.60
2015,08,19,15,31,15.60
2015,08,19,15,32,15.60
2015,08,19,15,33,15.60
2015,08,19,15,34,15.60
2015,08,19,15,35,15.60
2015,08,19,15,36,15.60
2015,08,19,15,37,15.60
2015,08,19,15,38,15.60
2015,08,19,15,39,15.60
2015,08,19,15,40,15.60
2015,08,19,15,41,15.60
2015,08,19,15,42,15.60
2015,08,19,15,43,15.60
2015,08,19,15,44,15.60
2015,08,19,15,45,15.60
2015,08,19,15,46,15.40
2015,08,19,15,47,15.40
2015,08,19,15,48,15.40
2015,08,19,15,49,15.40
2015,08,19,15,50,15.40
2015,08,19,15,51,15.40
2015,08,19,15,52,15.40
2015,08,19,15,53,15.40
2015,08,19,15,54,15.40
2015,08,19,15,55,15.40
2015,08,19,15,56,15.40
2015,08,19,15,57,15.40
2015,08,19,15,58,15.40
2015,08,19,15,59,15.40
2015,08,19,16,00,15.40
2015,08,19,16,01,15.40
2015,08,19,16,02,15.40
2015,08,19,16,03,15.40
2015,08,19,16,04,15.40
2015,08,19,16,05,15.40
2015,08,19,16,06,15.40
2015,08,19,16,07,15.40
2015,08,19,16,08,15.40
2015,08,19,16,09,15.40
2015,08,19,16,10,15.40
2015,08,19,16,11,15.40
2015,08,19,16,12,15.40
2015,08,19,16,13,15.40
2015,08,19,16,14,15.40
2015,08,19,16,15,15.40
2015,08,19,16,16,15.10
2015,08,19,16,17,15.10
2015,08,19,16,18,15.10
2015,08,19,16,19,15.10
2015,08,19,16,20,15.10
2015,08,19,16,21,15.10
2015,08,19,16,22,15.10
2015,08,19,16,23,15.10
2015,08,19,16,24,15.10
2015,08,19,16,25,15.10
2015,08,19,16,26,15.10
2015,08,19,16,27,15.10
2015,08,19,16,28,15.10
2015,08,19,16,29,15.10
2015,08,19,16,30,15.10
2015,08,19,16,31,15.10
2015,08,19,16,32,15.10
2015,08,19,16,33,15.10
2015,08,19,16,34,15.10
2015,08,19,16,35,15.10
2015,08,19,16,36,15.10
2015,08,19,16,37,15.10
2015,08,19,16,38,15.10
2015,08,19,16,39,15.10
2015,08,19,16,40,15.10
2015,08,19,16,41,15.10
2015,08,19,16,42,15.10
2015,08,19,16,43,15.10
2015,08,19,16,44,15.10
2015,08,19,16,45,15.10
2015,08,19,16,46,15.60
2015,08,19,16,47,15.60
2015,08,19,16,48,15.60
2015,08,19,16,49,15.60
2015,08,19,16,50,15.60
2015,08,19,16,51,15.60
2015,08,19,16,52,15.60
2015,08,19,16,53,15.60
2015,08,19,16,54,15.60
2015,08,19,16,55,15.60
2015,08,19,16,56,15.60
2015,08,19,16,57,15.60
2015,08,19,16,58,15.60
2015,08,19,16,59,15.60
2015,08,19,17,00,15.60
2015,08,19,17,01,15.60
2015,08,19,17,02,15.60
2015,08,19,17,03,15.60
2015,08,19,17,04,15.60
2015,08,19,17,05,15.60
2015,08,19,17,06,15.60
2015,08,19,17,07,15.60
2015,08,19,17,08,15.60
2015,08,19,17,09,15.60
2015,08,19,17,10,15.60
2015,08,19,17,11,15.60
2015,08,19,17,12,15.60
2015,08,19,17,13,15.60
2015,08,19,17,14,15.60
2015,08,19,17,15,15.60
2015,08,19,17,16,15.80
2015,08,19,17,17,15.80
2015,08,19,17,18,15.80
2015,08,19,17,19,15.80
2015,08,19,17,20,15.80
2015,08,19,17,21,15.80
2015,08,19,17,22,15.80
2015,08,19,17,23,15.80
2015,08,19,17,24,15.80
2015,08,19,17,25,15.80
2015,08,19,17,26,15.80
2015,08,19,17,27,15.80
2015,08,19,17,28,15.80
2015,08,19,17,29,15.80
2015,08,19,17,30,15.80
2015,08,19,17,31,15.80
2015,08,19,17,32,15.80
2015,08,19,17,33,15.80
2015,08,19,17,34,15.80
2015,08,19,17,35,15.80
2015,08,19,17,36,15.80
2015,08,19,17,37,15.80
2015,08,19,17,38,15.80
2015,08,19,17,39,15.80
2015,08,19,17,40,15.80
2015,08,19,17,41,15.80
2015,08,19,17,42,15.80
2015,08,19,17,43,15.80
2015,08,19,17,44,15.80
2015,08,19,17,45,15.80
2015,08,19,17,46,16.20
2015,08,19,17,47,16.20
2015,08,19,17,48,16.20
2015,08,19,17,49,16.20
2015,08,19,17,50,16.20
2015,08,19,17,51,16.20
2015,08,19,17,52,16.20
2015,08,19,17,53,16.20
2015,08,19,17,54,16.20
2015,08,19,17,55,16.20
2015,08,19,17,56,16.20
2015,08,19,17,57,16.20
2015,08,19,17,58,16.20
2015,08,19,17,59,16.20
2015,08,19,18,00,16.20
2015,08,19,18,01,16.20
2015,08,19,18,02,16.20
2015,08,19,18,03,16.20
2015,08,19,18,04,16.20
2015,08,19,18,05,16.20
2015,08,19,18,06,16.20
2015,08,19,18,07,16.20
2015,08,19,18,08,16.20
2015,08,19,18,09,16.20
2015,08,19,18,10,16.20
2015,08,19,18,11,16.20
2015,08,19,18,12,16.20
2015,08,19,18,13,16.20
2015,08,19,18,14,16.20
2015,08,19,18,15,16.20
2015,08,19,18,16,17.30
2015,08,19,18,17,17.30
2015,08,19,18,18,17.30
2015,08,19,18,19,17.30
2015,08,19,18,20,17.30
2015,08,19,18,21,17.30
2015,08,19,18,22,17.30
2015,08,19,18,23,17.30
2015,08,19,18,24,17.30
2015,08,19,18,25,17.30
2015,08,19,18,26,17.30
2015,08,19,18,27,17.30
2015,08,19,18,28,17.30
2015,08,19,18,29,17.30
2015,08,19,18,30,17.30
2015,08,19,18,31,17.30
2015,08,19,18,32,17.30
2015,08,19,18,33,17.30
2015,08,19,18,34,17.30
2015,08,19,18,35,17.30